Location: Newark
(37.8333°N, 119.5000°W)
Time: 20:20:52
(UTC+00:00)

Tiros 1 despin weight - Visible Passes

Search period start: 25 August 2019 00:00
Search period end: 04 September 2019 00:00
Orbit: 594 x 642 km, 48.2° (Epoch: 24 August)

Date Brightness Start Highest point End Pass type
(mag) Time Alt. Az. Time Alt. Az. Time Alt. Az.
25 Aug ? 09:21:48 13° NE 09:21:48 13° NE 09:22:26 10° NE visible
25 Aug ? 10:58:55 20° NNW 11:01:25 35° NNE 11:05:39 10° E visible
25 Aug ? 12:38:41 10° WNW 12:43:11 60° SW 12:47:44 10° SE visible
26 Aug ? 09:38:31 15° NE 09:38:31 15° NE 09:39:39 10° ENE visible
26 Aug ? 11:15:39 24° NW 11:18:14 54° NNE 11:22:45 10° ESE visible
26 Aug ? 12:55:39 10° WNW 12:59:38 30° SW 13:03:40 10° SSE visible
27 Aug ? 04:42:08 10° SSW 04:42:14 10° SSW 04:42:14 10° SSW visible
27 Aug ? 09:55:39 17° ENE 09:55:39 17° ENE 09:56:57 10° ENE visible
27 Aug ? 11:32:49 32° WNW 11:34:54 86° SW 11:39:31 10° SE visible
28 Aug ? 03:19:27 10° SSE 03:21:52 14° SE 03:22:57 13° ESE visible
28 Aug ? 04:58:27 10° SW 05:00:08 23° SW 05:00:08 23° SW visible
28 Aug ? 10:13:14 15° E 10:13:14 15° E 10:14:10 10° E visible
28 Aug ? 11:50:25 38° WSW 11:51:26 44° SW 11:55:48 10° SSE visible
29 Aug ? 03:34:19 10° SSW 03:38:10 30° SE 03:40:29 19° E visible
29 Aug ? 05:15:14 10° WSW 05:17:38 30° W 05:17:38 30° W visible
29 Aug ? 12:08:23 22° SW 12:08:23 22° SW 12:11:24 10° S visible
30 Aug ? 03:50:17 10° SW 03:54:37 60° SE 03:57:34 20° ENE visible
30 Aug ? 05:32:20 10° W 05:34:42 25° WNW 05:34:42 25° WNW visible
31 Aug ? 04:06:49 10° WSW 04:11:12 72° NNW 04:14:15 20° NE visible
31 Aug ? 05:49:37 10° WNW 05:51:21 19° NW 05:51:21 19° NW visible
01 Sep ? 04:23:44 10° W 04:27:57 42° NNW 04:30:37 20° NE visible
01 Sep ? 06:06:52 10° NW 06:07:43 14° NW 06:07:43 14° NW visible
02 Sep ? 02:58:30 10° SW 03:02:54 81° SE 03:07:20 10° ENE visible
02 Sep ? 04:40:56 10° WNW 04:44:49 29° NNW 04:46:45 21° NNE visible
03 Sep ? 03:15:13 10° WSW 03:19:34 56° NNW 03:23:55 10° NE visible
03 Sep ? 04:58:13 10° WNW 05:01:48 23° N 05:02:43 22° N visible
